Date String (YYYY-MM-DD hh:mm:ss) UTC,Instrument flags,Ambient pressure (hPa),Sample flow (lpm),Bypass flow (lpm),Sample temperature (°C),Ambient temperature (°C),ASC tube jacket temperature (°C),LED temperature (°C),Box temperature (°C),Sample RH (%),Span deviation,Mass concentration (μg/m³),Mass concentration (μg/m³),Mass concentration (μg/m³)
DateTimeUTC,F1_M11,P_M11,Q1_M11,Q2_M11,T1_M11,T2_M11,T3_M11,T4_M11,T5_M11,U1_M11,ZSPAN_M11,X0_M11,X2_M11,X1_M11
2021-09-25 01:00:00,,0831.3,5.01,0.00,29.6,28.4,00.0,38.6,31.4,16.9,0000.0,0024.64,0006.88,0004.54
2021-09-25 01:01:00,,0831.3,5.01,0.00,29.6,28.6,00.0,38.6,31.5,16.9,0000.0,0026.04,0006.86,0004.53
2021-09-25 01:02:00,,0831.3,5.01,0.00,29.7,28.7,00.0,38.6,31.5,16.9,0000.0,0026.68,0006.89,0004.53
2021-09-25 01:03:00,,0831.2,5.00,0.00,29.7,28.8,00.0,38.7,31.6,16.8,0000.0,0025.86,0006.94,0004.52
2021-09-25 01:04:00,,0831.2,5.00,0.00,29.8,28.9,00.0,38.7,31.7,16.8,0000.0,0027.34,0006.93,0004.51
2021-09-25 01:05:00,,0831.2,5.00,0.00,29.8,29.0,00.0,38.7,31.7,16.8,0000.0,0027.03,0006.80,0004.48
2021-09-25 01:06:00,,0831.2,4.99,0.00,29.9,29.1,00.0,38.7,31.7,16.7,0000.0,0026.62,0006.69,0004.46
2021-09-25 01:07:00,,0831.2,5.01,0.00,29.9,29.2,00.0,38.8,31.8,16.7,0000.0,0026.83,0006.67,0004.47
2021-09-25 01:08:00,,0831.2,5.00,0.00,29.9,28.8,00.0,38.8,31.7,16.6,0000.0,0026.56,0006.62,0004.46
2021-09-25 01:09:00,,0831.2,5.01,0.00,29.8,27.0,00.0,38.8,31.2,16.7,0000.0,0026.82,0006.68,0004.46
2021-09-25 01:10:00,,0831.3,4.99,0.00,29.7,26.4,00.0,38.8,31.0,16.9,0000.0,0027.69,0006.67,0004.46
2021-09-25 01:11:00,,0831.2,5.00,0.00,29.6,26.7,00.0,38.7,31.1,16.9,0000.0,0027.61,0006.75,0004.48
2021-09-25 01:12:00,,0831.3,4.99,0.00,29.6,27.1,00.0,38.7,31.2,17.0,0000.0,0028.26,0006.80,0004.49
2021-09-25 01:13:00,,0831.3,5.01,0.00,29.6,27.5,00.0,38.7,31.3,17.0,0001.3,0027.78,0006.78,0004.49
2021-09-25 01:14:00,,0831.3,5.01,0.00,29.6,27.8,00.0,38.7,31.4,16.9,0001.7,0028.52,0006.75,0004.49
2021-09-25 01:15:00,,0831.3,5.00,0.00,29.6,28.1,00.0,38.7,31.4,16.9,0001.4,0027.79,0006.74,0004.49
2021-09-25 01:16:00,,0831.3,5.00,0.00,29.7,28.3,00.0,38.7,31.5,16.9,0001.1,0027.94,0006.77,0004.49
2021-09-25 01:17:00,,0831.3,5.00,0.00,29.7,28.5,00.0,38.7,31.5,16.9,0001.6,0028.67,0006.81,0004.49
2021-09-25 01:18:00,,0831.3,5.00,0.00,29.7,28.6,00.0,38.7,31.6,16.8,0001.0,0028.94,0006.78,0004.49
2021-09-25 01:19:00,,0831.3,5.01,0.00,29.8,28.8,00.0,38.7,31.6,16.8,0000.8,0030.33,0006.83,0004.50
2021-09-25 01:20:00,,0831.3,5.00,0.00,29.8,28.9,00.0,38.8,31.7,16.8,0000.3,0030.60,0006.81,0004.51
2021-09-25 01:21:00,,0831.3,5.00,0.00,29.9,28.9,00.0,38.8,31.8,16.8,0000.3,0028.61,0006.82,0004.52
2021-09-25 01:22:00,,0831.4,5.00,0.00,29.9,29.0,00.0,38.8,31.8,16.9,0000.5,0028.54,0006.78,0004.53
2021-09-25 01:23:00,,0831.3,5.00,0.00,29.9,29.1,00.0,38.8,31.8,16.9,0000.7,0026.79,0006.67,0004.51
2021-09-25 01:24:00,,0831.3,5.01,0.00,30.0,29.2,00.0,38.9,31.9,16.9,0000.3,0026.13,0006.63,0004.50
2021-09-25 01:25:00,,0831.4,5.01,0.00,30.0,27.9,00.0,38.9,31.5,16.9,0000.5,0026.94,0006.60,0004.50
2021-09-25 01:26:00,,0831.4,4.99,0.00,29.7,25.6,00.0,38.8,30.9,17.1,0000.3,0026.89,0006.59,0004.49
2021-09-25 01:27:00,,0831.3,4.99,0.00,29.6,25.3,00.0,38.8,30.8,17.3,0000.5,0026.99,0006.70,0004.51
2021-09-25 01:28:00,,0831.4,5.02,0.00,29.5,25.8,00.0,38.7,30.9,17.4,-000.0,0027.24,0006.71,0004.52
2021-09-25 01:29:00,,0831.4,5.00,0.00,29.4,26.3,00.0,38.7,30.9,17.6,0000.2,0026.13,0006.75,0004.52
2021-09-25 01:30:00,,0831.5,5.00,0.00,29.4,26.8,00.0,38.7,31.0,17.7,0001.0,0025.81,0006.74,0004.53
2021-09-25 01:31:00,,0831.4,4.99,0.00,29.4,27.3,00.0,38.6,31.1,17.7,0000.9,0025.46,0006.72,0004.54
2021-09-25 01:32:00,,0831.4,5.00,0.00,29.5,27.6,00.0,38.6,31.2,17.7,0000.8,0025.90,0006.70,0004.53
2021-09-25 01:33:00,,0831.4,4.99,0.00,29.5,27.9,00.0,38.6,31.3,17.7,0001.1,0024.95,0006.69,0004.52
2021-09-25 01:34:00,,0831.4,5.01,0.00,29.5,28.1,00.0,38.6,31.3,17.6,0001.3,0025.66,0006.75,0004.54
2021-09-25 01:35:00,,0831.4,5.00,0.00,29.5,28.3,00.0,38.6,31.4,17.6,0002.1,0027.20,0006.82,0004.55
2021-09-25 01:36:00,,0831.5,5.00,0.00,29.6,28.5,00.0,38.6,31.4,17.6,0000.0,0026.88,0006.95,0004.56
2021-09-25 01:37:00,,0831.4,5.00,0.00,29.6,28.6,00.0,38.6,31.5,17.6,0000.0,0027.56,0006.94,0004.57
2021-09-25 01:38:00,,0831.5,5.01,0.00,29.7,28.7,00.0,38.7,31.5,17.5,0000.0,0029.09,0006.90,0004.59
2021-09-25 01:39:00,,0831.4,4.98,0.00,29.7,28.8,00.0,38.7,31.6,17.5,0001.7,0029.68,0006.92,0004.60
2021-09-25 01:40:00,,0831.4,5.01,0.00,29.7,28.9,00.0,38.7,31.6,17.5,0002.4,0031.46,0006.93,0004.59
2021-09-25 01:41:00,,0831.4,4.99,0.00,29.8,29.0,00.0,38.7,31.6,17.4,0002.4,0031.30,0006.91,0004.58
2021-09-25 01:42:00,,0831.5,5.02,0.00,29.8,29.1,00.0,38.7,31.7,17.3,0001.1,0031.54,0006.89,0004.59
2021-09-25 01:43:00,,0831.5,4.99,0.00,29.9,29.1,00.0,38.8,31.7,17.2,0002.3,0031.66,0006.95,0004.61
2021-09-25 01:44:00,,0831.5,5.01,0.00,29.9,29.2,00.0,38.8,31.8,17.2,0000.3,0031.11,0006.91,0004.61
2021-09-25 01:45:00,,0831.5,4.98,0.00,29.9,29.3,00.0,38.8,31.8,17.1,0000.0,0031.82,0006.96,0004.62
2021-09-25 01:46:00,,0831.5,5.02,0.00,30.0,28.6,00.0,38.9,31.7,17.1,0000.0,0030.20,0006.97,0004.62
2021-09-25 01:47:00,,0831.5,4.99,0.00,29.8,26.5,00.0,38.8,31.1,17.2,0000.0,0029.80,0006.94,0004.63
2021-09-25 01:48:00,,0831.5,5.00,0.00,29.7,26.2,00.0,38.8,31.0,17.4,0000.0,0029.78,0006.96,0004.65
2021-09-25 01:49:00,,0831.5,5.00,0.00,29.6,26.6,00.0,38.8,31.1,17.5,0000.0,0028.64,0007.00,0004.65
2021-09-25 01:50:00,,0831.5,5.00,0.00,29.6,27.0,00.0,38.8,31.1,17.5,0000.0,0027.75,0006.99,0004.65
2021-09-25 01:51:00,,0831.5,5.01,0.00,29.6,27.4,00.0,38.7,31.2,17.5,0000.0,0025.86,0006.94,0004.67
2021-09-25 01:52:00,,0831.6,5.00,0.00,29.6,27.7,00.0,38.7,31.3,17.5,0001.7,0025.63,0006.98,0004.67
2021-09-25 01:53:00,,0831.5,5.01,0.00,29.6,28.0,00.0,38.7,31.3,17.4,0002.3,0025.64,0007.03,0004.67
2021-09-25 01:54:00,,0831.5,4.98,0.00,29.6,28.2,00.0,38.7,31.4,17.4,0000.0,0027.46,0007.01,0004.68
2021-09-25 01:55:00,,0831.5,5.01,0.00,29.7,28.4,00.0,38.7,31.4,17.3,0000.0,0027.51,0007.02,0004.70
2021-09-25 01:56:00,,0831.5,5.00,0.00,29.7,28.6,00.0,38.7,31.5,17.3,0000.0,0026.47,0006.96,0004.72
2021-09-25 01:57:00,,0831.5,5.00,0.00,29.7,28.7,00.0,38.7,31.5,17.2,0000.5,0026.47,0006.88,0004.73
2021-09-25 01:58:00,,0831.5,5.00,0.00,29.8,28.8,00.0,38.8,31.6,17.1,0000.0,0025.30,0006.76,0004.73
2021-09-25 01:59:00,,0831.5,5.00,0.00,29.8,28.9,00.0,38.8,31.6,17.0,0000.3,0025.02,0006.80,0004.75
